Location: Baili�vre
(50.0696°N, 4.2409°E)
Time: 04:18:09
(UTC+00:00)

BREEZE-M DEB (TANK) - Pass Details

Date: 08 August 2020
Orbit: 280 x 20488 km, 49.2° (Epoch: 23 September)

Event Time Altitude Azimuth Distance (km) Brightness Sun altitude
Rises 19:48:07 0° 257° (WSW) 4,360 8.1 -5.7°
Reaches altitude 10° 19:52:18 10° 255° (WSW) 2,212 6.5 -6.2°
Maximum altitude 19:56:12 67° 173° (S) 405 2.0 -6.7°
Drops below altitude 10° 19:58:13 10° 89° (E) 1,146 4.0 -7.0°
Enters shadow 19:58:41 - 87° (E) 1,397 4.4 -7.1°
